Location: ?????????
(54.7630°N, 39.4991°E)
Time: 15:44:55
(UTC+00:00)

CZ-2C R/B - Pass Details

Date: 14 April 2026
Orbit: 781 x 868 km, 98.4° (Epoch: 17 May)

Event Time Altitude Azimuth Distance (km) Brightness Sun altitude
Exits shadow 22:44:51 27° 265° (W) 1,581 3.9 -23.3°
Maximum altitude 22:45:02 27° 269° (W) 1,578 3.9 -23.2°
Drops below altitude 10° 22:49:42 10° 326° (NNW) 2,480 5.5 -23.0°
Sets 22:52:25 0° 339° (NNW) 3,406 6.5 -22.8°
